Preview of NWS' New Version of Forecast
This preview is not operational and should not be used for support decisions.

Regional Weather Roundup (RWR)

Issued by National Weather Service (NWS)

                            
000
ASUS44 KMEG 250600
RWRTN 
TENNESSEE HOURLY STATE WEATHER ROUNDUP
NATIONAL WEATHER SERVICE MEMPHIS TN
100 AM CDT SUN AUG 25 2019

TNZ002-004-019-021-049-052-054-088>092-250700-
WEST TENNESSEE
  
CITY           SKY/WX    TMP DP  RH WIND       PRES   REMARKS
MEMPHIS INTL   CLOUDY    76  73  91 S6        29.99F                  
NWS MEMPHIS      N/A     75 N/A N/A MISG        N/A                   
JACKSON        CLOUDY    75  73  93 CALM      30.01F                  
DYERSBURG      MOCLDY    73  69  87 NE5       30.02F                  
SELMER         MOCLDY    73  72  94 CALM      30.00F                  
$$

TNZ008-025-027-028-033-062-065-066-250700-
NORTH MIDDLE TENNESSEE
  
CITY           SKY/WX    TMP DP  RH WIND       PRES   REMARKS
NASHVILLE      CLOUDY    74  66  76 NE6       30.04F                  
CLARKSVILLE    FAIR      69  61  75 E5        30.04F                  
SMYRNA         FAIR      74  69  85 NE3       30.04F                  
CROSSVILLE     MOCLDY    69  65  86 CALM      30.11F                  
$$

TNZ061-075-076-078-094-096-097-250700-
SOUTH MIDDLE TENNESSEE
  
CITY           SKY/WX    TMP DP  RH WIND       PRES   REMARKS
$$

TNZ017-018-042-046-047-250700-
NORTHEAST TENNESSEE
  
CITY           SKY/WX    TMP DP  RH WIND       PRES   REMARKS
TRI CITIES     FAIR      61  58  90 CALM      30.15F                  
$$

TNZ012-013-036-069-073-074-250700-
CENTRAL EAST TENNESSEE
  
CITY           SKY/WX    TMP DP  RH WIND       PRES   REMARKS
KNOXVILLE      CLOUDY    71  64  78 NE8       30.06F                  
OAK RIDGE      FAIR      72  65  78 CALM      30.09S                  
$$

TNZ083-085-099-250700-
SOUTHEAST TENNESSEE
  
CITY           SKY/WX    TMP DP  RH WIND       PRES   REMARKS
CHATTANOOGA    MOCLDY    75  72  90 E3        30.05F                  
$$

SKY/WX REPORTED AS FAIR MEANS FEW OR NO CLOUDS BELOW
12 THOUSAND FEET.